Year,Month,Day,Hour,Minute,Value (Times are PST for windgust in km/hr)
2012,12,05,00,00,8.10
2012,12,05,00,01,14.50
2012,12,05,00,02,16.10
2012,12,05,00,03,20.90
2012,12,05,00,04,24.20
2012,12,05,00,05,24.20
2012,12,05,00,06,29.00
2012,12,05,00,07,27.40
2012,12,05,00,08,27.40
2012,12,05,00,09,19.30
2012,12,05,00,10,25.70
2012,12,05,00,11,20.90
2012,12,05,00,12,22.50
2012,12,05,00,13,27.40
2012,12,05,00,14,38.60
2012,12,05,00,15,27.40
2012,12,05,00,16,25.70
2012,12,05,00,17,19.30
2012,12,05,00,18,17.70
2012,12,05,00,19,11.30
2012,12,05,00,20,6.40
2012,12,05,00,21,11.30
2012,12,05,00,22,6.40
2012,12,05,00,23,14.50
2012,12,05,00,24,11.30
2012,12,05,00,25,17.70
2012,12,05,00,26,16.10
2012,12,05,00,27,14.50
2012,12,05,00,28,20.90
2012,12,05,00,29,9.60
2012,12,05,00,30,8.10
2012,12,05,00,31,6.40
2012,12,05,00,32,16.10
2012,12,05,00,33,17.70
2012,12,05,00,34,9.60
2012,12,05,00,35,14.50
2012,12,05,00,36,6.40
2012,12,05,00,37,4.80
2012,12,05,00,38,11.30
2012,12,05,00,39,6.40
2012,12,05,00,40,8.10
2012,12,05,00,41,8.10
2012,12,05,00,42,11.30
2012,12,05,00,43,17.70
2012,12,05,00,44,24.20
2012,12,05,00,45,24.20
2012,12,05,00,46,25.70
2012,12,05,00,47,16.10
2012,12,05,00,48,17.70
2012,12,05,00,49,27.40
2012,12,05,00,50,27.40
2012,12,05,00,51,22.50
2012,12,05,00,52,25.70
2012,12,05,00,53,27.40
2012,12,05,00,54,22.50
2012,12,05,00,55,19.30
2012,12,05,00,56,16.10
2012,12,05,00,57,20.90
2012,12,05,00,58,14.50
2012,12,05,00,59,16.10
2012,12,05,01,00,19.30
2012,12,05,01,01,20.90
2012,12,05,01,02,20.90
2012,12,05,01,03,17.70
2012,12,05,01,04,24.20
2012,12,05,01,05,16.10
2012,12,05,01,06,19.30
2012,12,05,01,07,29.00
2012,12,05,01,08,24.20
2012,12,05,01,09,20.90
2012,12,05,01,10,11.30
2012,12,05,01,11,17.70
2012,12,05,01,12,14.50
2012,12,05,01,13,25.70
2012,12,05,01,14,27.40
2012,12,05,01,15,20.90
2012,12,05,01,16,27.40
2012,12,05,01,17,20.90
2012,12,05,01,18,17.70
2012,12,05,01,19,19.30
2012,12,05,01,20,14.50
2012,12,05,01,21,11.30
2012,12,05,01,22,9.60
2012,12,05,01,23,14.50
2012,12,05,01,24,9.60
2012,12,05,01,25,9.60
2012,12,05,01,26,16.10
2012,12,05,01,27,16.10
2012,12,05,01,28,8.10
2012,12,05,01,29,9.60
2012,12,05,01,30,6.40
2012,12,05,01,31,6.40
2012,12,05,01,32,8.10
2012,12,05,01,33,4.80
2012,12,05,01,34,6.40
2012,12,05,01,35,6.40
2012,12,05,01,36,3.20
2012,12,05,01,37,1.60
2012,12,05,01,38,3.20
2012,12,05,01,39,6.40
2012,12,05,01,40,17.70
2012,12,05,01,41,16.10
2012,12,05,01,42,8.10
2012,12,05,01,43,6.40
2012,12,05,01,44,6.40
2012,12,05,01,45,8.10
2012,12,05,01,46,9.60
2012,12,05,01,47,9.60
2012,12,05,01,48,4.80
2012,12,05,01,49,8.10
2012,12,05,01,50,16.10
2012,12,05,01,51,16.10
2012,12,05,01,52,14.50
2012,12,05,01,53,14.50
2012,12,05,01,54,8.10
2012,12,05,01,55,9.60
2012,12,05,01,56,11.30
2012,12,05,01,57,12.90
2012,12,05,01,58,8.10
2012,12,05,01,59,6.40
2012,12,05,02,00,11.30
2012,12,05,02,01,9.60
2012,12,05,02,02,17.70
2012,12,05,02,03,14.50
2012,12,05,02,04,11.30
2012,12,05,02,05,6.40
2012,12,05,02,06,4.80
2012,12,05,02,07,4.80
2012,12,05,02,08,3.20
2012,12,05,02,09,6.40
2012,12,05,02,10,17.70
2012,12,05,02,11,11.30
2012,12,05,02,12,6.40
2012,12,05,02,13,4.80
2012,12,05,02,14,8.10
2012,12,05,02,15,11.30
2012,12,05,02,16,8.10
2012,12,05,02,17,4.80
2012,12,05,02,18,4.80
2012,12,05,02,19,4.80
2012,12,05,02,20,4.80
2012,12,05,02,21,1.60
2012,12,05,02,22,4.80
2012,12,05,02,23,3.20
2012,12,05,02,24,1.60
2012,12,05,02,25,1.60
2012,12,05,02,28,1.60
2012,12,05,02,29,3.20
2012,12,05,02,30,3.20
2012,12,05,02,31,1.60
2012,12,05,02,32,1.60
2012,12,05,02,35,1.60
2012,12,05,02,36,6.40
2012,12,05,02,37,14.50
2012,12,05,02,38,9.60
2012,12,05,02,39,9.60
2012,12,05,02,40,11.30
2012,12,05,02,41,8.10
2012,12,05,02,42,4.80
2012,12,05,02,43,3.20
2012,12,05,02,44,3.20
2012,12,05,02,45,3.20
2012,12,05,02,46,1.60
2012,12,05,02,47,1.60
2012,12,05,02,48,3.20
2012,12,05,02,49,6.40
2012,12,05,02,50,8.10
2012,12,05,02,52,6.40
2012,12,05,02,53,14.50
2012,12,05,02,54,1.60
2012,12,05,02,55,4.80
2012,12,05,02,56,4.80
2012,12,05,02,57,8.10
2012,12,05,02,58,11.30
2012,12,05,02,59,11.30
2012,12,05,03,00,9.60
2012,12,05,03,01,4.80
2012,12,05,03,02,8.10
2012,12,05,03,03,14.50
2012,12,05,03,04,6.40
2012,12,05,03,05,16.10
2012,12,05,03,06,11.30
2012,12,05,03,07,6.40
2012,12,05,03,08,4.80
2012,12,05,03,09,4.80
2012,12,05,03,10,4.80
2012,12,05,03,11,8.10
2012,12,05,03,12,4.80
2012,12,05,03,13,8.10
2012,12,05,03,14,1.60
2012,12,05,03,16,4.80
2012,12,05,03,17,3.20
2012,12,05,03,20,4.80
2012,12,05,03,21,4.80
2012,12,05,03,22,6.40
2012,12,05,03,23,4.80
2012,12,05,03,24,3.20
2012,12,05,03,27,3.20
2012,12,05,03,28,6.40
2012,12,05,03,29,6.40
2012,12,05,03,30,4.80
2012,12,05,03,32,1.60
2012,12,05,03,34,1.60
2012,12,05,03,35,1.60
2012,12,05,03,36,3.20
2012,12,05,03,37,3.20
2012,12,05,03,38,3.20
2012,12,05,03,43,1.60
2012,12,05,03,44,1.60
2012,12,05,03,45,3.20
2012,12,05,03,46,3.20
2012,12,05,03,47,3.20
2012,12,05,03,48,3.20
2012,12,05,03,49,3.20
2012,12,05,03,50,4.80
2012,12,05,03,51,3.20
2012,12,05,03,52,1.60
2012,12,05,03,56,1.60
2012,12,05,04,02,8.10
2012,12,05,04,03,9.60
2012,12,05,04,04,6.40
2012,12,05,04,05,3.20
2012,12,05,04,06,1.60
2012,12,05,04,07,1.60
2012,12,05,04,08,11.30
2012,12,05,04,09,11.30
2012,12,05,04,10,8.10
2012,12,05,04,11,17.70
2012,12,05,04,12,9.60
2012,12,05,04,13,6.40
2012,12,05,04,14,4.80
2012,12,05,04,15,4.80
2012,12,05,04,16,4.80
2012,12,05,04,17,6.40
2012,12,05,04,18,6.40
2012,12,05,04,19,3.20
2012,12,05,04,20,4.80
2012,12,05,04,21,4.80
2012,12,05,04,22,3.20
2012,12,05,04,25,1.60
2012,12,05,04,30,4.80
2012,12,05,04,31,6.40
2012,12,05,04,34,1.60
2012,12,05,04,36,4.80
2012,12,05,04,37,3.20
2012,12,05,04,38,3.20
2012,12,05,04,39,1.60
2012,12,05,04,46,1.60
2012,12,05,04,47,3.20
2012,12,05,04,48,3.20
2012,12,05,04,49,1.60
2012,12,05,04,52,3.20
2012,12,05,04,57,1.60
2012,12,05,04,59,3.20
2012,12,05,05,00,3.20
2012,12,05,05,01,3.20
2012,12,05,05,02,3.20
2012,12,05,05,03,1.60
2012,12,05,05,04,1.60
2012,12,05,05,08,4.80
2012,12,05,05,09,4.80
2012,12,05,05,10,3.20
2012,12,05,05,11,3.20
2012,12,05,05,12,1.60
2012,12,05,05,14,1.60
2012,12,05,05,15,1.60
2012,12,05,05,16,3.20
2012,12,05,05,17,3.20
2012,12,05,05,18,1.60
2012,12,05,05,22,1.60
2012,12,05,05,37,3.20
2012,12,05,05,38,3.20
2012,12,05,05,39,1.60
2012,12,05,05,55,1.60
2012,12,05,05,59,1.60
2012,12,05,06,00,1.60
2012,12,05,06,02,3.20
2012,12,05,06,03,3.20
2012,12,05,06,06,1.60
2012,12,05,06,07,1.60
2012,12,05,06,11,3.20
2012,12,05,06,12,3.20
2012,12,05,06,13,3.20
2012,12,05,06,14,3.20
2012,12,05,06,23,3.20
2012,12,05,06,35,4.80
2012,12,05,06,40,1.60
2012,12,05,06,43,1.60
2012,12,05,06,44,4.80
2012,12,05,06,45,6.40
2012,12,05,06,46,6.40
2012,12,05,06,47,1.60
2012,12,05,06,48,6.40
2012,12,05,06,49,4.80
2012,12,05,06,50,3.20
2012,12,05,06,51,4.80
2012,12,05,06,52,4.80
2012,12,05,06,53,4.80
2012,12,05,06,54,4.80
2012,12,05,06,55,1.60
2012,12,05,06,56,1.60
2012,12,05,07,00,1.60
2012,12,05,07,01,3.20
2012,12,05,07,02,3.20
2012,12,05,07,03,3.20
2012,12,05,07,04,4.80
2012,12,05,07,05,3.20
2012,12,05,07,07,3.20
2012,12,05,07,08,4.80
2012,12,05,07,09,4.80
2012,12,05,07,10,3.20
2012,12,05,07,11,1.60
2012,12,05,07,12,3.20
2012,12,05,07,13,4.80
2012,12,05,07,14,4.80
2012,12,05,07,15,4.80
2012,12,05,07,16,1.60
2012,12,05,07,25,1.60
2012,12,05,07,27,3.20
2012,12,05,07,28,3.20
2012,12,05,07,30,1.60
2012,12,05,07,31,1.60
2012,12,05,07,32,3.20
2012,12,05,07,33,4.80
2012,12,05,07,34,1.60
2012,12,05,07,41,1.60
2012,12,05,07,53,1.60
2012,12,05,07,54,1.60
2012,12,05,07,55,1.60
2012,12,05,08,04,1.60
2012,12,05,08,10,1.60
2012,12,05,08,11,1.60
2012,12,05,08,12,1.60
2012,12,05,08,14,1.60
2012,12,05,08,15,1.60
2012,12,05,08,16,1.60
2012,12,05,08,19,1.60
2012,12,05,08,20,3.20
2012,12,05,08,21,3.20
2012,12,05,08,22,4.80
2012,12,05,08,23,3.20
2012,12,05,08,24,3.20
2012,12,05,08,25,4.80
2012,12,05,08,26,6.40
2012,12,05,08,27,6.40
2012,12,05,08,28,3.20
2012,12,05,08,29,3.20
2012,12,05,08,30,1.60
2012,12,05,08,31,1.60
2012,12,05,08,32,1.60
2012,12,05,08,33,1.60
2012,12,05,08,34,4.80
2012,12,05,08,35,3.20
2012,12,05,08,36,3.20
2012,12,05,08,37,1.60
2012,12,05,08,38,3.20
2012,12,05,08,39,1.60
2012,12,05,08,40,1.60
2012,12,05,08,41,3.20
2012,12,05,08,42,3.20
2012,12,05,08,43,3.20
2012,12,05,08,44,3.20
2012,12,05,08,45,1.60
2012,12,05,08,46,3.20
2012,12,05,08,47,1.60
2012,12,05,08,48,1.60
2012,12,05,08,49,1.60
2012,12,05,08,51,1.60
2012,12,05,08,52,1.60
2012,12,05,08,53,4.80
2012,12,05,08,54,1.60
2012,12,05,09,02,1.60
2012,12,05,09,04,3.20
2012,12,05,09,05,4.80
2012,12,05,09,06,4.80
2012,12,05,09,07,3.20
2012,12,05,09,08,1.60
2012,12,05,09,09,3.20
2012,12,05,09,10,3.20
2012,12,05,09,11,3.20
2012,12,05,09,12,4.80
2012,12,05,09,13,3.20
2012,12,05,09,18,3.20
2012,12,05,09,23,3.20
2012,12,05,09,24,3.20
2012,12,05,09,36,1.60
2012,12,05,09,37,1.60
2012,12,05,09,44,1.60
2012,12,05,09,45,1.60
2012,12,05,09,46,3.20
2012,12,05,09,47,1.60
2012,12,05,09,48,3.20
2012,12,05,09,55,1.60
2012,12,05,10,07,1.60
2012,12,05,10,08,4.80
2012,12,05,10,09,3.20
2012,12,05,10,10,4.80
2012,12,05,10,11,3.20
2012,12,05,10,16,3.20
2012,12,05,10,19,1.60
2012,12,05,10,21,1.60
2012,12,05,10,24,1.60
2012,12,05,10,29,4.80
2012,12,05,10,30,6.40
2012,12,05,10,31,4.80
2012,12,05,10,32,3.20
2012,12,05,10,33,1.60
2012,12,05,10,35,1.60
2012,12,05,10,36,1.60
2012,12,05,10,41,4.80
2012,12,05,10,42,6.40
2012,12,05,10,43,1.60
2012,12,05,10,46,1.60
2012,12,05,10,47,1.60
2012,12,05,10,48,3.20
2012,12,05,10,49,3.20
2012,12,05,10,50,3.20
2012,12,05,10,51,3.20
2012,12,05,10,52,1.60
2012,12,05,10,53,1.60
2012,12,05,10,57,4.80
2012,12,05,10,58,3.20
2012,12,05,10,59,1.60
2012,12,05,11,08,1.60
2012,12,05,11,16,1.60
2012,12,05,11,17,11.30
2012,12,05,11,18,6.40
2012,12,05,11,19,3.20
2012,12,05,11,20,1.60
2012,12,05,11,21,1.60
2012,12,05,11,22,4.80
2012,12,05,11,23,1.60
2012,12,05,11,24,3.20
2012,12,05,11,25,4.80
2012,12,05,11,26,3.20
2012,12,05,11,28,1.60
2012,12,05,11,29,6.40
2012,12,05,11,37,1.60
2012,12,05,11,38,4.80
2012,12,05,11,39,8.10
2012,12,05,11,40,11.30
2012,12,05,11,41,8.10
2012,12,05,11,42,1.60
2012,12,05,11,43,8.10
2012,12,05,11,44,4.80
2012,12,05,11,45,8.10
2012,12,05,11,46,6.40
2012,12,05,11,47,6.40
2012,12,05,11,48,4.80
2012,12,05,11,49,4.80
2012,12,05,11,50,3.20
2012,12,05,11,51,6.40
2012,12,05,11,52,6.40
2012,12,05,11,53,6.40
2012,12,05,11,54,9.60
2012,12,05,11,55,4.80
2012,12,05,11,57,3.20
2012,12,05,11,58,4.80
2012,12,05,11,59,4.80
2012,12,05,12,00,3.20
2012,12,05,12,01,4.80
2012,12,05,12,02,8.10
2012,12,05,12,03,9.60
2012,12,05,12,04,11.30
2012,12,05,12,05,9.60
2012,12,05,12,06,6.40
2012,12,05,12,07,4.80
2012,12,05,12,08,4.80
2012,12,05,12,09,6.40
2012,12,05,12,10,6.40
2012,12,05,12,12,3.20
2012,12,05,12,13,3.20
2012,12,05,12,14,8.10
2012,12,05,12,15,9.60
2012,12,05,12,16,6.40
2012,12,05,12,17,4.80
2012,12,05,12,18,6.40
2012,12,05,12,19,3.20
2012,12,05,12,20,4.80
2012,12,05,12,21,11.30
2012,12,05,12,22,11.30
2012,12,05,12,23,3.20
2012,12,05,12,24,3.20
2012,12,05,12,25,6.40
2012,12,05,12,26,11.30
2012,12,05,12,27,8.10
2012,12,05,12,28,6.40
2012,12,05,12,29,4.80
2012,12,05,12,30,8.10
2012,12,05,12,31,9.60
2012,12,05,12,32,6.40
2012,12,05,12,33,4.80
2012,12,05,12,34,3.20
2012,12,05,12,35,8.10
2012,12,05,12,36,4.80
2012,12,05,12,39,3.20
2012,12,05,12,40,8.10
2012,12,05,12,41,4.80
2012,12,05,12,42,6.40
2012,12,05,12,43,8.10
2012,12,05,12,44,11.30
2012,12,05,12,45,9.60
2012,12,05,12,46,9.60
2012,12,05,12,47,9.60
2012,12,05,12,48,12.90
2012,12,05,12,49,12.90
2012,12,05,12,50,16.10
2012,12,05,12,51,16.10
2012,12,05,12,52,17.70
2012,12,05,12,53,16.10
2012,12,05,12,54,4.80
2012,12,05,12,55,6.40
2012,12,05,12,56,6.40
2012,12,05,12,57,14.50
2012,12,05,12,58,20.90
2012,12,05,12,59,9.60
2012,12,05,13,00,8.10
2012,12,05,13,01,1.60
2012,12,05,13,02,4.80
2012,12,05,13,03,8.10
2012,12,05,13,04,17.70
2012,12,05,13,05,11.30
2012,12,05,13,06,9.60
2012,12,05,13,07,4.80
2012,12,05,13,08,8.10
2012,12,05,13,09,8.10
2012,12,05,13,10,3.20
2012,12,05,13,11,16.10
2012,12,05,13,12,16.10
2012,12,05,13,13,11.30
2012,12,05,13,14,8.10
2012,12,05,13,15,12.90
2012,12,05,13,16,11.30
2012,12,05,13,17,12.90
2012,12,05,13,18,9.60
2012,12,05,13,19,6.40
2012,12,05,13,20,1.60
2012,12,05,13,23,9.60
2012,12,05,13,24,11.30
2012,12,05,13,25,8.10
2012,12,05,13,26,9.60
2012,12,05,13,27,8.10
2012,12,05,13,28,6.40
2012,12,05,13,29,11.30
2012,12,05,13,30,8.10
2012,12,05,13,31,3.20
2012,12,05,13,32,4.80
2012,12,05,13,33,4.80
2012,12,05,13,34,1.60
2012,12,05,13,35,4.80
2012,12,05,13,36,4.80
2012,12,05,13,37,8.10
2012,12,05,13,38,4.80
2012,12,05,13,39,8.10
2012,12,05,13,40,6.40
2012,12,05,13,41,11.30
2012,12,05,13,42,6.40
2012,12,05,13,43,11.30
2012,12,05,13,44,17.70
2012,12,05,13,45,3.20
2012,12,05,13,46,1.60
2012,12,05,13,47,1.60
2012,12,05,13,49,3.20
2012,12,05,13,52,3.20
2012,12,05,13,53,4.80
2012,12,05,13,54,9.60
2012,12,05,13,55,6.40
2012,12,05,13,56,6.40
2012,12,05,13,57,3.20
2012,12,05,13,58,4.80
2012,12,05,13,59,4.80
2012,12,05,14,01,1.60
2012,12,05,14,02,4.80
2012,12,05,14,03,8.10
2012,12,05,14,04,1.60
2012,12,05,14,05,1.60
2012,12,05,14,06,6.40
2012,12,05,14,07,1.60
2012,12,05,14,08,9.60
2012,12,05,14,09,3.20
2012,12,05,14,10,4.80
2012,12,05,14,11,6.40
2012,12,05,14,12,6.40
2012,12,05,14,13,4.80
2012,12,05,14,14,1.60
2012,12,05,14,17,4.80
2012,12,05,14,18,1.60
2012,12,05,14,19,3.20
2012,12,05,14,20,3.20
2012,12,05,14,23,3.20
2012,12,05,14,24,1.60
2012,12,05,14,25,4.80
2012,12,05,14,26,3.20
2012,12,05,14,27,4.80
2012,12,05,14,28,4.80
2012,12,05,14,29,4.80
2012,12,05,14,30,6.40
2012,12,05,14,31,9.60
2012,12,05,14,32,9.60
2012,12,05,14,33,8.10
2012,12,05,14,34,9.60
2012,12,05,14,35,9.60
2012,12,05,14,36,6.40
2012,12,05,14,38,8.10
2012,12,05,14,39,8.10
2012,12,05,14,41,3.20
2012,12,05,14,43,1.60
2012,12,05,14,44,1.60
2012,12,05,14,45,1.60
2012,12,05,14,46,1.60
2012,12,05,14,47,4.80
2012,12,05,14,48,3.20
2012,12,05,14,49,6.40
2012,12,05,14,50,4.80
2012,12,05,14,51,9.60
2012,12,05,14,52,9.60
2012,12,05,14,53,8.10
2012,12,05,14,54,9.60
2012,12,05,14,55,6.40
2012,12,05,14,56,8.10
2012,12,05,14,57,11.30
2012,12,05,14,58,3.20
2012,12,05,14,59,3.20
2012,12,05,15,00,4.80
2012,12,05,15,01,4.80
2012,12,05,15,02,3.20
2012,12,05,15,03,11.30
2012,12,05,15,04,9.60
2012,12,05,15,05,6.40
2012,12,05,15,06,6.40
2012,12,05,15,07,8.10
2012,12,05,15,08,3.20
2012,12,05,15,11,1.60
2012,12,05,15,13,3.20
2012,12,05,15,15,4.80
2012,12,05,15,16,4.80
2012,12,05,15,17,3.20
2012,12,05,15,18,4.80
2012,12,05,15,19,6.40
2012,12,05,15,20,1.60
2012,12,05,15,21,3.20
2012,12,05,15,22,4.80
2012,12,05,15,23,1.60
2012,12,05,15,27,3.20
2012,12,05,15,28,3.20
2012,12,05,15,29,1.60
2012,12,05,15,30,4.80
2012,12,05,15,31,3.20
2012,12,05,15,32,1.60
2012,12,05,15,33,1.60
2012,12,05,15,34,1.60
2012,12,05,15,47,3.20
2012,12,05,15,48,3.20
2012,12,05,15,49,1.60
2012,12,05,15,57,3.20
2012,12,05,16,03,1.60
2012,12,05,16,08,3.20
2012,12,05,16,09,4.80
2012,12,05,16,10,3.20
2012,12,05,16,11,3.20
2012,12,05,16,17,3.20
2012,12,05,16,18,1.60
2012,12,05,16,21,3.20
2012,12,05,16,22,3.20
2012,12,05,16,26,6.40
2012,12,05,16,27,3.20
2012,12,05,16,28,1.60
2012,12,05,16,30,1.60
2012,12,05,16,31,6.40
2012,12,05,16,32,1.60
2012,12,05,16,35,1.60
2012,12,05,16,36,6.40
2012,12,05,16,37,8.10
2012,12,05,16,38,8.10
2012,12,05,16,39,3.20
2012,12,05,16,40,1.60
2012,12,05,16,41,1.60
2012,12,05,16,43,3.20
2012,12,05,16,44,8.10
2012,12,05,16,45,9.60
2012,12,05,16,49,1.60
2012,12,05,16,50,3.20
2012,12,05,16,51,3.20
2012,12,05,16,52,3.20
2012,12,05,16,53,6.40
2012,12,05,16,54,9.60
2012,12,05,16,55,6.40
2012,12,05,16,56,6.40
2012,12,05,16,57,4.80
2012,12,05,16,58,1.60
2012,12,05,17,00,1.60
2012,12,05,17,02,1.60
2012,12,05,17,03,3.20
2012,12,05,17,04,3.20
2012,12,05,17,30,1.60
2012,12,05,17,31,1.60
2012,12,05,17,43,1.60
2012,12,05,17,56,1.60
2012,12,05,17,58,1.60
2012,12,05,17,59,4.80
2012,12,05,18,00,4.80
2012,12,05,18,01,6.40
2012,12,05,18,02,4.80
2012,12,05,18,03,1.60
2012,12,05,18,04,3.20
2012,12,05,18,07,1.60
2012,12,05,18,08,1.60
2012,12,05,18,09,3.20
2012,12,05,18,10,3.20
2012,12,05,18,16,1.60
2012,12,05,18,17,1.60
2012,12,05,18,18,1.60
2012,12,05,18,19,1.60
2012,12,05,18,21,3.20
2012,12,05,18,22,1.60
2012,12,05,18,23,1.60
2012,12,05,18,24,1.60
2012,12,05,18,40,3.20
2012,12,05,18,46,1.60
2012,12,05,18,49,4.80
2012,12,05,18,50,4.80
2012,12,05,18,51,4.80
2012,12,05,18,52,3.20
2012,12,05,18,53,3.20
2012,12,05,18,54,3.20
2012,12,05,18,55,4.80
2012,12,05,18,56,4.80
2012,12,05,18,57,4.80
2012,12,05,18,58,6.40
2012,12,05,18,59,4.80
2012,12,05,19,00,1.60
2012,12,05,19,01,3.20
2012,12,05,19,02,4.80
2012,12,05,19,03,3.20
2012,12,05,19,04,3.20
2012,12,05,19,05,3.20
2012,12,05,19,06,3.20
2012,12,05,19,07,4.80
2012,12,05,19,08,3.20
2012,12,05,19,13,3.20
2012,12,05,19,14,4.80
2012,12,05,19,15,4.80
2012,12,05,19,18,1.60
2012,12,05,19,19,1.60
2012,12,05,19,21,3.20
2012,12,05,19,22,3.20
2012,12,05,19,23,4.80
2012,12,05,19,24,1.60
2012,12,05,19,25,4.80
2012,12,05,19,26,3.20
2012,12,05,19,27,4.80
2012,12,05,19,28,1.60
2012,12,05,19,29,1.60
2012,12,05,19,30,4.80
2012,12,05,19,31,1.60
2012,12,05,19,33,1.60
2012,12,05,19,34,1.60
2012,12,05,19,35,1.60
2012,12,05,19,36,4.80
2012,12,05,19,37,4.80
2012,12,05,19,39,3.20
2012,12,05,19,40,1.60
2012,12,05,19,41,3.20
2012,12,05,19,42,4.80
2012,12,05,19,43,3.20
2012,12,05,19,44,1.60
2012,12,05,19,45,3.20
2012,12,05,19,46,1.60
2012,12,05,19,48,1.60
2012,12,05,19,49,3.20
2012,12,05,19,50,1.60
2012,12,05,19,52,3.20
2012,12,05,19,56,1.60
2012,12,05,19,57,1.60
2012,12,05,19,58,1.60
2012,12,05,19,59,3.20
2012,12,05,20,06,1.60
2012,12,05,20,07,1.60
2012,12,05,20,17,3.20
2012,12,05,20,18,3.20
2012,12,05,20,19,1.60
2012,12,05,20,21,1.60
2012,12,05,20,22,1.60
2012,12,05,20,23,3.20
2012,12,05,20,24,1.60
2012,12,05,20,25,1.60
2012,12,05,20,26,1.60
2012,12,05,20,27,1.60
2012,12,05,20,28,1.60
2012,12,05,20,29,1.60
2012,12,05,20,32,3.20
2012,12,05,20,33,1.60
2012,12,05,20,34,1.60
2012,12,05,20,37,3.20
2012,12,05,20,38,4.80
2012,12,05,20,39,3.20
2012,12,05,20,42,1.60
2012,12,05,20,43,1.60
2012,12,05,20,44,1.60
2012,12,05,20,45,3.20
2012,12,05,20,46,1.60
2012,12,05,20,52,3.20
2012,12,05,20,53,1.60
2012,12,05,20,54,1.60
2012,12,05,20,56,1.60
2012,12,05,20,58,1.60
2012,12,05,20,59,1.60
2012,12,05,21,00,1.60
2012,12,05,21,01,4.80
2012,12,05,21,02,11.30
2012,12,05,21,03,4.80
2012,12,05,21,04,6.40
2012,12,05,21,05,3.20
2012,12,05,21,06,4.80
2012,12,05,21,07,1.60
2012,12,05,21,08,4.80
2012,12,05,21,09,1.60
2012,12,05,21,10,3.20
2012,12,05,21,11,3.20
2012,12,05,21,12,3.20
2012,12,05,21,13,4.80
2012,12,05,21,14,3.20
2012,12,05,21,15,1.60
2012,12,05,21,16,1.60
2012,12,05,21,17,1.60
2012,12,05,21,18,3.20
2012,12,05,21,19,1.60
2012,12,05,21,20,1.60
2012,12,05,21,21,3.20
2012,12,05,21,22,4.80
2012,12,05,21,23,4.80
2012,12,05,21,24,3.20
2012,12,05,21,28,1.60
2012,12,05,21,29,1.60
2012,12,05,22,05,1.60
2012,12,05,22,28,1.60
2012,12,05,22,35,1.60
2012,12,05,22,36,1.60
2012,12,05,22,45,3.20
2012,12,05,22,47,3.20
2012,12,05,22,49,1.60
2012,12,05,22,50,1.60
2012,12,05,22,53,1.60
2012,12,05,22,55,1.60
2012,12,05,22,57,4.80
2012,12,05,23,04,1.60
2012,12,05,23,05,4.80
2012,12,05,23,07,1.60
2012,12,05,23,08,3.20
2012,12,05,23,09,1.60
2012,12,05,23,10,1.60
2012,12,05,23,11,1.60
2012,12,05,23,13,3.20
2012,12,05,23,20,1.60
2012,12,05,23,21,1.60
2012,12,05,23,39,1.60
2012,12,05,23,55,1.60
2012,12,05,23,56,1.60
2012,12,05,23,57,1.60
